This demonstration page uses our WeatherBlox Daily Observations layout. Learn more.

40.92945, -100.16068

Hourly Observations for June 6, 2015

Temp ( °F °C ) Dew Point ( °F °C ) Humidity (%) Winds ( mph kmh ) Pressure ( in mb ) Visibility ( mi km ) Precip ( " mm )
12:15 am 00:15 Mostly Cloudy with Nearby Thunderstorms 68 20.2 66 18.8 92 92 Calm 29.97 1015 10 16.0934 N/A
12:35 am 00:35 Partly Cloudy with Light Rain 68 20.1 65 18.6 91 91 Calm 29.97 1015 10 16.0934 N/A
12:55 am 00:55 Clear 67 19.7 65 18.5 93 93 SSW 5 7 29.97 1015 10 16.0934 N/A
1:15 am 01:15 Mostly Cloudy with Light Drizzle 68 20 65 18.5 91 91 SW 8 13 30 1016 10 16.0934 N/A
1:35 am 01:35 Cloudy with Light Rain 68 20.2 65 18.6 91 91 SW 14 22 30 1016 10 16.0934 N/A
1:55 am 01:55 Mostly Cloudy 67 19.7 65 18.2 91 91 S 7 11 29.97 1015 10 16.0934 N/A
2:15 am 02:15 Partly Cloudy with Light Rain 67 19.5 65 18.2 92 92 SSE 9 15 29.91 1013 10 16.0934 N/A
2:35 am 02:35 Mostly Cloudy with Rain 67 19.4 64 17.7 90 90 SE 8 13 29.91 1013 10 16.0934 0.01 0.254
2:55 am 02:55 Cloudy with Light Rain 66 18.7 63 17.1 90 90 E 7 11 29.88 1012 10 16.0934 0.03 0.762
3:15 am 03:15 Partly Cloudy 65 18.5 63 17 91 91 S 12 19 29.91 1013 10 16.0934 N/A
3:35 am 03:35 Clear 66 18.8 64 17.6 93 93 SSE 15 24 29.91 1013 10 16.0934 0.01 0.254
3:55 am 03:55 Clear 65 18.2 62 16.7 91 91 SSE 10 17 29.91 1013 10 16.0934 0.01 0.254
4:15 am 04:15 Clear 65 18.6 63 17 90 90 SE 10 17 29.91 1013 10 16.0934 N/A
4:35 am 04:35 Clear 65 18.6 63 17.3 92 92 SE 12 19 29.91 1013 10 16.0934 N/A
4:55 am 04:55 Clear 65 18.5 64 17.5 94 94 SE 7 11 29.91 1013 10 16.0934 N/A
5:15 am 05:15 Clear 65 18.6 64 17.6 94 94 SSE 9 15 29.91 1013 10 16.0934 N/A
5:35 am 05:35 Clear 66 19 64 18 94 94 SE 13 20 29.91 1013 10 16.0934 N/A
5:55 am 05:55 Clear 66 19 64 17.7 92 92 SE 9 15 29.91 1013 10 16.0934 N/A
6:15 am 06:15 Mostly Cloudy 66 19.1 64 18 93 93 ESE 10 17 29.91 1013 10 16.0934 N/A
6:35 am 06:35 Cloudy 66 19.1 64 17.9 93 93 SE 10 17 29.91 1013 10 16.0934 N/A
6:55 am 06:55 Mostly Cloudy 66 19.1 64 17.7 92 92 SE 12 19 29.91 1013 10 16.0934 0 0
7:15 am 07:15 Cloudy 67 19.2 64 17.9 92 92 SE 13 20 29.91 1013 10 16.0934 N/A
7:35 am 07:35 Cloudy 67 19.2 64 18 93 93 SE 12 19 29.91 1013 10 16.0934 N/A
7:55 am 07:55 Cloudy 67 19.2 64 17.8 92 92 SE 14 22 29.91 1013 10 16.0934 N/A
8:15 am 08:15 Cloudy 66 19.1 64 17.9 93 93 SE 13 20 29.91 1013 10 16.0934 N/A
8:35 am 08:35 Cloudy 67 19.5 65 18.2 92 92 SE 13 20 29.88 1012 10 16.0934 N/A
8:55 am 08:55 Cloudy 67 19.7 65 18.5 93 93 SE 10 17 29.88 1012 10 16.0934 N/A
9:15 am 09:15 Cloudy 68 20.2 66 19 93 93 SE 12 19 29.88 1012 10 16.0934 N/A
9:35 am 09:35 Cloudy 70 21.3 68 19.8 91 91 SSE 12 19 29.88 1012 10 16.0934 N/A
9:55 am 09:55 Partly Cloudy 73 22.5 69 20.4 88 88 SSE 15 24 29.83 1010 10 16.0934 N/A
11:35 am 11:35 Sunny 77 25.2 69 20.5 75 75 S 12 19 29.8 1009 7 11.26538 N/A
11:55 am 11:55 Sunny 78 25.6 69 20.8 75 75 S 13 20 29.77 1008 10 16.0934 N/A
12:15 pm 12:15 Sunny 79 26.2 70 21.3 74 74 SSE 10 17 29.77 1008 10 16.0934 N/A
12:35 pm 12:35 Sunny 80 26.8 70 21.3 72 72 S 13 20 29.77 1008 10 16.0934 N/A
12:55 pm 12:55 Partly Cloudy 80 26.9 70 21.1 71 71 SSE 15 24 29.74 1007 10 16.0934 N/A
1:15 pm 13:15 Sunny 80 26.7 70 21.2 72 72 S 15 24 29.74 1007 10 16.0934 N/A
1:35 pm 13:35 Sunny 83 28.1 71 21.4 67 67 S 15 24 29.74 1007 10 16.0934 N/A
1:55 pm 13:55 Partly Cloudy 83 28.1 70 21.3 67 67 S 17 28 29.74 1007 10 16.0934 N/A
2:15 pm 14:15 Partly Cloudy 82 28 70 21 66 66 S 14 22 29.71 1006 10 16.0934 N/A
2:35 pm 14:35 Partly Cloudy 83 28.5 70 21.3 65 65 S 15 24 29.68 1005 10 16.0934 N/A
2:55 pm 14:55 Partly Cloudy 85 29.4 69 20.7 60 60 SSW 12 19 29.68 1005 10 16.0934 N/A
3:15 pm 15:15 Sunny 85 29.6 67 19.6 55 55 SSW 16 26 29.65 1004 10 16.0934 N/A
3:35 pm 15:35 Sunny 87 30.3 66 18.9 50 50 SW 17 28 29.65 1004 7 11.26538 N/A
3:55 pm 15:55 Sunny 86 30 68 20.2 56 56 SSW 13 20 29.65 1004 10 16.0934 N/A
4:15 pm 16:15 Sunny 87 30.4 69 20.4 55 55 SW 13 20 29.65 1004 10 16.0934 N/A
4:35 pm 16:35 Sunny 87 30.4 68 20.2 54 54 SSW 12 19 29.62 1003 10 16.0934 N/A
4:55 pm 16:55 Sunny 88 31.2 67 19.5 50 50 SSW 12 19 29.62 1003 10 16.0934 N/A
5:15 pm 17:15 Sunny 82 28 68 20.1 62 62 S 13 20 29.65 1004 10 16.0934 N/A
5:35 pm 17:35 Sunny 82 27.6 69 20.3 64 64 S 15 24 29.65 1004 10 16.0934 N/A
5:55 pm 17:55 Sunny 82 27.9 68 19.8 61 61 S 14 22 29.65 1004 10 16.0934 N/A
6:15 pm 18:15 Sunny 82 27.8 68 20 63 63 SSE 10 17 29.65 1004 10 16.0934 N/A
6:35 pm 18:35 Sunny 84 28.7 69 20.7 62 62 SSE 9 15 29.62 1003 10 16.0934 N/A
6:55 pm 18:55 Sunny 83 28.3 70 20.9 64 64 SSE 12 19 29.62 1003 10 16.0934 N/A
7:15 pm 19:15 Sunny 82 27.9 71 21.5 68 68 S 7 11 29.62 1003 10 16.0934 N/A
7:35 pm 19:35 Sunny 83 28.1 71 21.9 69 69 S 7 11 29.62 1003 10 16.0934 N/A
7:55 pm 19:55 Sunny 83 28.1 68 20 61 61 WSW 8 13 29.62 1003 10 16.0934 N/A
8:15 pm 20:15 Sunny 82 27.6 66 18.9 59 59 WSW 7 11 29.62 1003 10 16.0934 N/A
8:35 pm 20:35 Sunny 81 27 67 19.2 62 62 W 8 13 29.62 1003 10 16.0934 N/A
8:55 pm 20:55 Sunny 78 25.6 66 18.9 67 67 W 8 13 29.65 1004 10 16.0934 N/A
9:15 pm 21:15 Clear 76 24.5 65 18.5 69 69 W 7 11 29.65 1004 10 16.0934 N/A
9:35 pm 21:35 Clear 74 23.3 64 18 72 72 W 8 13 29.68 1005 10 16.0934 N/A
9:55 pm 21:55 Clear 73 23 64 18 74 74 W 8 13 29.68 1005 10 16.0934 N/A
10:15 pm 22:15 Clear 72 22 64 18 78 78 W 5 7 29.68 1005 10 16.0934 N/A
10:35 pm 22:35 Clear 70 21.2 64 18 82 82 W 3 6 29.71 1006 10 16.0934 N/A
10:55 pm 22:55 Clear 69 20.3 64 17.6 85 85 WNW 7 11 29.74 1007 10 16.0934 N/A
11:15 pm 23:15 Clear 69 20.5 64 18 86 86 W 8 13 29.74 1007 10 16.0934 N/A
11:35 pm 23:35 Clear 69 20.8 65 18.3 86 86 W 8 13 29.74 1007 10 16.0934 N/A
11:55 pm 23:55 Clear 70 21 65 18.5 86 86 NW 8 13 29.74 1007 10 16.0934 N/A

Powered by AerisWeather